TimeCDT,TemperatureF,Dew PointF,Humidity,Sea Level PressureIn,VisibilityMPH,Wind Direction,Wind SpeedMPH,Gust SpeedMPH,PrecipitationIn,Events,Conditions,WindDirDegrees,DateUTC
12:15 AM,57.2,53.6,88,29.81,10.0,Calm,Calm,-,N/A,,Clear,0,2012-10-02 05:15:00
12:35 AM,57.2,51.8,82,29.81,10.0,North,4.6,-,N/A,,Clear,360,2012-10-02 05:35:00
12:55 AM,57.2,51.8,82,29.81,10.0,North,3.5,-,N/A,,Clear,10,2012-10-02 05:55:00
1:35 AM,57.2,51.8,82,29.83,10.0,Calm,Calm,-,N/A,,Clear,0,2012-10-02 06:35:00
1:55 AM,55.4,51.8,88,29.83,10.0,North,-9999.0,-,N/A,,Clear,0,2012-10-02 06:55:00
2:15 AM,55.4,51.8,88,29.83,10.0,Calm,Calm,-,N/A,,Clear,0,2012-10-02 07:15:00
2:35 AM,55.4,51.8,88,29.83,10.0,Calm,Calm,-,N/A,,Clear,0,2012-10-02 07:35:00
2:55 AM,55.4,51.8,88,29.83,10.0,North,3.5,-,N/A,,Clear,360,2012-10-02 07:55:00
3:15 AM,55.4,51.8,88,29.84,10.0,Calm,Calm,-,N/A,,Clear,0,2012-10-02 08:15:00
3:35 AM,55.4,51.8,88,29.84,10.0,Calm,Calm,-,N/A,,Clear,0,2012-10-02 08:35:00
3:55 AM,55.4,50.0,82,29.84,10.0,Calm,Calm,-,N/A,,Clear,0,2012-10-02 08:55:00
4:15 AM,55.4,50.0,82,29.84,10.0,Calm,Calm,-,N/A,,Clear,0,2012-10-02 09:15:00
4:35 AM,55.4,51.8,88,29.84,10.0,North,3.5,-,N/A,,Clear,10,2012-10-02 09:35:00
4:55 AM,55.4,51.8,88,29.85,10.0,Calm,Calm,-,N/A,,Clear,0,2012-10-02 09:55:00
5:15 AM,55.4,50.0,82,29.85,10.0,Calm,Calm,-,N/A,,Mostly Cloudy,0,2012-10-02 10:15:00
5:35 AM,55.4,51.8,88,29.86,10.0,North,4.6,-,N/A,,Mostly Cloudy,360,2012-10-02 10:35:00
5:55 AM,55.4,51.8,88,29.87,10.0,North,5.8,-,N/A,,Overcast,350,2012-10-02 10:55:00
6:15 AM,57.2,51.8,82,29.88,10.0,North,5.8,-,N/A,,Mostly Cloudy,360,2012-10-02 11:15:00
6:35 AM,57.2,51.8,82,29.88,10.0,North,4.6,-,N/A,,Clear,10,2012-10-02 11:35:00
6:55 AM,55.4,51.8,88,29.88,10.0,WNW,4.6,-,N/A,,Clear,300,2012-10-02 11:55:00
7:15 AM,55.4,51.8,88,29.89,10.0,Calm,Calm,-,N/A,,Clear,0,2012-10-02 12:15:00
7:35 AM,55.4,51.8,88,29.89,10.0,North,3.5,-,N/A,,Clear,360,2012-10-02 12:35:00
7:55 AM,55.4,51.8,88,29.89,10.0,NNW,3.5,-,N/A,,Clear,330,2012-10-02 12:55:00
8:15 AM,60.8,53.6,77,29.90,10.0,North,6.9,-,N/A,,Clear,360,2012-10-02 13:15:00
8:35 AM,60.8,53.6,77,29.90,10.0,North,5.8,-,N/A,,Clear,350,2012-10-02 13:35:00
8:55 AM,62.6,55.4,77,29.90,10.0,North,5.8,-,N/A,,Clear,360,2012-10-02 13:55:00
9:15 AM,64.4,55.4,73,29.91,10.0,North,8.1,-,N/A,,Clear,360,2012-10-02 14:15:00
9:35 AM,64.4,55.4,73,29.92,10.0,NNW,8.1,-,N/A,,Clear,340,2012-10-02 14:35:00
9:55 AM,64.4,57.2,77,29.93,10.0,NNW,6.9,-,N/A,,Clear,330,2012-10-02 14:55:00
10:15 AM,66.2,57.2,73,29.93,10.0,North,6.9,-,N/A,,Clear,350,2012-10-02 15:15:00
10:35 AM,71.6,57.2,60,29.93,10.0,NNW,8.1,-,N/A,,Clear,340,2012-10-02 15:35:00
10:55 AM,71.6,57.2,60,29.93,10.0,NNW,6.9,-,N/A,,Clear,340,2012-10-02 15:55:00
11:15 AM,73.4,57.2,57,29.94,10.0,NNW,5.8,-,N/A,,Clear,330,2012-10-02 16:15:00
11:35 AM,73.4,57.2,57,29.93,10.0,North,6.9,-,N/A,,Clear,360,2012-10-02 16:35:00
11:55 AM,75.2,57.2,53,29.93,10.0,North,8.1,-,N/A,,Clear,350,2012-10-02 16:55:00
12:15 PM,75.2,57.2,53,29.93,10.0,WNW,5.8,-,N/A,,Clear,300,2012-10-02 17:15:00
12:35 PM,77.0,57.2,50,29.93,10.0,North,5.8,-,N/A,,Partly Cloudy,10,2012-10-02 17:35:00
12:55 PM,75.2,55.4,50,29.92,10.0,NNW,8.1,-,N/A,,Partly Cloudy,340,2012-10-02 17:55:00
1:15 PM,75.2,55.4,50,29.92,10.0,North,5.8,-,N/A,,Clear,360,2012-10-02 18:15:00
1:35 PM,77.0,55.4,47,29.91,10.0,North,9.2,-,N/A,,Scattered Clouds,360,2012-10-02 18:35:00
1:55 PM,77.0,55.4,47,29.91,10.0,North,9.2,-,N/A,,Mostly Cloudy,10,2012-10-02 18:55:00
2:15 PM,77.0,55.4,47,29.90,10.0,North,8.1,-,N/A,,Scattered Clouds,350,2012-10-02 19:15:00
2:35 PM,77.0,55.4,47,29.90,10.0,North,10.4,-,N/A,,Scattered Clouds,350,2012-10-02 19:35:00
2:55 PM,78.8,55.4,44,29.89,10.0,NNW,11.5,-,N/A,,Partly Cloudy,340,2012-10-02 19:55:00
3:15 PM,78.8,53.6,42,29.89,10.0,NNW,11.5,-,N/A,,Clear,330,2012-10-02 20:15:00
3:35 PM,78.8,51.8,39,29.88,10.0,WNW,9.2,-,N/A,,Clear,300,2012-10-02 20:35:00
3:55 PM,78.8,53.6,42,29.89,10.0,North,11.5,-,N/A,,Clear,350,2012-10-02 20:55:00
4:15 PM,78.8,50.0,36,29.89,10.0,NNW,10.4,-,N/A,,Clear,330,2012-10-02 21:15:00
4:35 PM,78.8,51.8,39,29.89,10.0,NNW,6.9,-,N/A,,Clear,330,2012-10-02 21:35:00
4:55 PM,78.8,51.8,39,29.90,10.0,NNW,8.1,-,N/A,,Clear,340,2012-10-02 21:55:00
5:15 PM,77.0,53.6,44,29.90,10.0,North,9.2,-,N/A,,Clear,350,2012-10-02 22:15:00
5:35 PM,75.2,50.0,41,29.90,10.0,NNW,8.1,-,N/A,,Clear,340,2012-10-02 22:35:00
5:55 PM,73.4,51.8,47,29.90,10.0,North,3.5,-,N/A,,Clear,350,2012-10-02 22:55:00
6:15 PM,73.4,53.6,50,29.90,10.0,North,3.5,-,N/A,,Clear,360,2012-10-02 23:15:00
6:35 PM,71.6,53.6,53,29.91,10.0,North,3.5,-,N/A,,Partly Cloudy,10,2012-10-02 23:35:00
7:15 PM,66.2,55.4,68,29.92,10.0,Calm,Calm,-,N/A,,Clear,0,2012-10-03 00:15:00
7:35 PM,66.2,57.2,73,29.92,10.0,North,4.6,-,N/A,,Clear,10,2012-10-03 00:35:00
8:15 PM,68.0,53.6,60,29.93,10.0,North,4.6,-,N/A,,Clear,10,2012-10-03 01:15:00
8:35 PM,68.0,53.6,60,29.94,10.0,NNE,4.6,-,N/A,,Clear,20,2012-10-03 01:35:00
8:55 PM,66.2,53.6,64,29.94,10.0,Calm,Calm,-,N/A,,Clear,0,2012-10-03 01:55:00
9:15 PM,64.4,57.2,77,29.95,10.0,Calm,Calm,-,N/A,,Clear,0,2012-10-03 02:15:00
9:35 PM,62.6,57.2,82,29.95,10.0,Calm,Calm,-,N/A,,Clear,0,2012-10-03 02:35:00
9:55 PM,62.6,57.2,82,29.96,8.0,Calm,Calm,-,N/A,,Clear,0,2012-10-03 02:55:00
10:15 PM,62.6,57.2,82,29.96,10.0,Calm,Calm,-,N/A,,Clear,0,2012-10-03 03:15:00
10:35 PM,62.6,55.4,77,29.97,10.0,Calm,Calm,-,N/A,,Clear,0,2012-10-03 03:35:00
10:55 PM,62.6,57.2,82,29.97,10.0,Calm,Calm,-,N/A,,Clear,0,2012-10-03 03:55:00
11:15 PM,60.8,57.2,88,29.97,10.0,Calm,Calm,-,N/A,,Clear,0,2012-10-03 04:15:00
11:35 PM,60.8,55.4,82,29.97,10.0,Calm,Calm,-,N/A,,Clear,0,2012-10-03 04:35:00
11:55 PM,60.8,55.4,82,29.98,10.0,Calm,Calm,-,N/A,,Clear,0,2012-10-03 04:55:00